Glasgow, United Kingdom

7:36 PM BST on July 21, 2017 (GMT +0100)
Glasgow

Weather History for EGPF - May, 2017

Change the Weather History Date:

Friday, May 19, 2017

  Actual Average Record
Temperature  
Mean Temperature 50 °F -  
Max Temperature 60 °F 60 °F 68 °F (1998)
Min Temperature 39 °F 45 °F 35 °F (2015)
Degree Days  
Heating Degree Days 16    
Moisture  
Dew Point 44 °F    
Average Humidity 79    
Maximum Humidity 100    
Minimum Humidity 52    
Precipitation  
Precipitation 0.00 in - - ()
Sea Level Pressure  
Sea Level Pressure 29.86 in    
Wind  
Wind Speed 3 mph ()    
Max Wind Speed 13 mph    
Max Gust Speed 20 mph    
Visibility 5.8 miles    
Events Fog , Rain    
Averages and records for this station are not official NWS values.
T = Trace of Precipitation, MM = Missing Value Source: Averaged Metar Reports

Daily Weather History Graph

Daily Weather History Graph

Search for Another Location

Airport or City:

Trip Planner

Search our weather history database for the weather conditions in past years. The results will help you decide how hot, cold, wet, or windy it might be!

Date:

Astronomy

May. 19, 2017 Rise Set
Actual Time 4:58 AM BST 9:31 PM BST
Civil Twilight 4:07 AM BST 10:23 PM BST
Nautical Twilight 2:43 AM BST 11:48 PM BST
Astronomical Twilight Sun does not set Sun does not set
Moon 2:47 AM BST (5/19) 12:49 PM BST (5/19)
Length of Visible Light 18h 15m
Length of Day
16h 32m
Last Quarter, 45% of the Moon is Illuminated
May 19
Last Quarter
May 25
New
Jun 1
First Quarter
Jun 9
Full
Jun 17
Last Quarter

Hourly Weather History & Observations

Time (BST) Temp. Windchill Dew Point Humidity Pressure Visibility Wind Dir Wind Speed Gust Speed Precip Events Conditions
12:20 AM 44.6 °F - 42.8 °F 93% 29.86 in 6.2 mi NNE 2.3 mph - N/A   Unknown
12:50 AM 46.4 °F 45.2 °F 44.6 °F 93% 29.86 in 6.2 mi Variable 3.5 mph - N/A   Unknown
1:20 AM 44.6 °F - 42.8 °F 93% 29.86 in 4.3 mi Variable 2.3 mph - N/A   Unknown
1:50 AM 46.4 °F 45.2 °F 44.6 °F 93% 29.86 in 5.6 mi East 3.5 mph - N/A   Unknown
2:20 AM 46.4 °F - 42.8 °F 87% 29.86 in 6.2 mi East 2.3 mph - N/A   Unknown
2:50 AM 44.6 °F - 42.8 °F 93% 29.86 in 4.3 mi NNE 1.2 mph - N/A   Unknown
3:20 AM 42.8 °F - 41.0 °F 93% 29.86 in 4.3 mi Variable 1.2 mph - N/A   Unknown
3:50 AM 41.0 °F 39.0 °F 41.0 °F 100% 29.86 in 3.1 mi West 3.5 mph - N/A   Partly Cloudy
4:20 AM 41.0 °F - 39.2 °F 93% 29.86 in 3.7 mi SW 1.2 mph - N/A Fog Patches of Fog
4:50 AM 39.2 °F 37.0 °F 37.4 °F 93% 29.86 in 3.7 mi WSW 3.5 mph - N/A Fog Patches of Fog
5:20 AM 39.2 °F 37.0 °F 37.4 °F 93% 29.86 in 6.2 mi Variable 3.5 mph - N/A Fog Patches of Fog
5:50 AM 39.2 °F 37.0 °F 39.2 °F 100% 29.86 in 6.2 mi West 3.5 mph - N/A Fog Patches of Fog
6:20 AM 41.0 °F - 41.0 °F 100% 29.86 in 3.1 mi WSW 2.3 mph - N/A   Mostly Cloudy
6:50 AM 42.8 °F 41.1 °F 42.8 °F 100% 29.86 in 6.2 mi West 3.5 mph - N/A   Mostly Cloudy
7:20 AM 44.6 °F - 42.8 °F 93% 29.86 in 6.2 mi WNW 1.2 mph - N/A   Mostly Cloudy
7:50 AM 46.4 °F 45.2 °F 44.6 °F 93% 29.86 in 6.2 mi Variable 3.5 mph - N/A   Mostly Cloudy
8:20 AM 50.0 °F - 44.6 °F 82% 29.86 in 6.2 mi Variable 2.3 mph - N/A   Scattered Clouds
8:50 AM 51.8 °F - 46.4 °F 82% 29.86 in 6.2 mi Variable 1.2 mph - N/A   Scattered Clouds
9:20 AM 51.8 °F - 44.6 °F 76% 29.86 in 6.2 mi Variable 2.3 mph - N/A   Scattered Clouds
9:50 AM 53.6 °F - 44.6 °F 72% 29.86 in 6.2 mi Variable 3.5 mph - N/A   Unknown
10:20 AM 55.4 °F - 44.6 °F 67% 29.86 in 6.2 mi Variable 2.3 mph - N/A   Unknown
10:50 AM 55.4 °F - 44.6 °F 67% 29.86 in 6.2 mi Variable 1.2 mph - N/A   Unknown
11:20 AM 57.2 °F - 42.8 °F 59% 29.86 in 6.2 mi Variable 3.5 mph - N/A   Unknown
11:50 AM 57.2 °F - 42.8 °F 59% 29.86 in 6.2 mi East 4.6 mph - N/A   Unknown
12:20 PM 57.2 °F - 42.8 °F 59% 29.86 in 6.2 mi Variable 3.5 mph - N/A   Mostly Cloudy
12:50 PM 59.0 °F - 42.8 °F 55% 29.86 in 6.2 mi Variable 3.5 mph - N/A   Mostly Cloudy
1:20 PM 60.8 °F - 44.6 °F 55% 29.86 in 6.2 mi SE 5.8 mph - N/A   Scattered Clouds
1:50 PM 60.8 °F - 42.8 °F 52% 29.86 in 6.2 mi Variable 4.6 mph - N/A   Partly Cloudy
2:20 PM 59.0 °F - 44.6 °F 59% 29.83 in 6.2 mi SE 4.6 mph - N/A   Mostly Cloudy
2:50 PM 60.8 °F - 44.6 °F 55% 29.83 in 6.2 mi Variable 3.5 mph - N/A   Mostly Cloudy
3:20 PM 60.8 °F - 42.8 °F 52% 29.83 in 6.2 mi Variable 2.3 mph - N/A   Mostly Cloudy
3:50 PM 59.0 °F - 42.8 °F 55% 29.83 in 6.2 mi Variable 3.5 mph - N/A   Mostly Cloudy
4:20 PM 59.0 °F - 44.6 °F 59% 29.83 in 6.2 mi SW 6.9 mph - N/A   Mostly Cloudy
4:50 PM 57.2 °F - 44.6 °F 63% 29.83 in 6.2 mi SW 8.1 mph - N/A   Unknown
5:20 PM 57.2 °F - 46.4 °F 67% 29.83 in 6.2 mi West 9.2 mph - N/A   Unknown
5:50 PM 57.2 °F - 46.4 °F 67% 29.83 in 6.2 mi West 6.9 mph - N/A   Unknown
6:20 PM 57.2 °F - 44.6 °F 63% 29.83 in 6.2 mi West 4.6 mph - N/A Rain Light Rain
6:50 PM 53.6 °F - 48.2 °F 82% 29.86 in 6.2 mi East 12.7 mph - N/A Rain Light Rain
7:20 PM 51.8 °F - 48.2 °F 88% 29.86 in 6.2 mi East 11.5 mph - N/A Rain Light Rain
7:50 PM 51.8 °F - 46.4 °F 82% 29.86 in 5.6 mi East 9.2 mph - N/A Rain Light Rain
8:20 PM 50.0 °F - 48.2 °F 94% 29.86 in 6.2 mi NE 8.1 mph - N/A Rain Light Rain
8:50 PM 50.0 °F - 48.2 °F 94% 29.86 in 5.0 mi East 5.8 mph - N/A Rain Light Rain
9:20 PM 50.0 °F - 48.2 °F 94% 29.89 in 6.2 mi East 5.8 mph - N/A Rain Light Rain
9:50 PM 50.0 °F - 48.2 °F 94% 29.89 in 6.2 mi ENE 5.8 mph 19.6 mph N/A Rain Light Rain
10:20 PM 50.0 °F - 46.4 °F 87% 29.89 in 6.2 mi ENE 8.1 mph - N/A Rain Light Rain
10:50 PM 50.0 °F - 46.4 °F 87% 29.89 in 6.2 mi NE 6.9 mph - N/A Rain Light Rain
11:20 PM 50.0 °F - 46.4 °F 87% 29.89 in 6.2 mi ENE 5.8 mph - N/A Rain Light Rain
11:50 PM 50.0 °F - 46.4 °F 87% 29.89 in 6.2 mi ENE 5.8 mph - N/A Rain Light Rain